#timestamp,LO_Frequency,Hit,StdDev 
1526814015.3,286046998.4,N
1526814035.1,286046999.0,N
1526814036.0,286046999.0,N
1526814055.8,286046999.1,N
1526814075.6,286046999.2,N
1526814095.5,286046996.8,Y
1526814115.3,286046999.0,P
1526814135.1,286046999.4,P
1526814155.9,286046999.5,N
1526814175.7,286046999.6,N
1526814195.6,286046996.9,Y
1526814215.4,286046999.5,P
1526814235.2,286046996.5,P
1526814255.0,286046999.1,N
1526814255.9,286046999.1,N
1526814275.8,286046997.0,N
1526814295.6,286046996.8,N
1526814315.4,286046997.1,N
1526814335.3,286046997.3,N
1526814355.1,286046997.4,N
1526814375.8,286046997.4,N
1526814395.7,286046997.0,N
1526814415.5,286046996.7,Y
1526814435.3,286046998.5,P
1526814455.2,286046998.5,P
1526814475.9,286046998.5,P
1526814495.7,286046998.3,Y
1526814515.6,286047000.3,P
1526814535.4,286047000.5,N
1526814555.2,286047000.5,N
1526814575.1,286047000.6,N
1526814576.0,286047000.6,N
1526814595.8,286046998.2,N
1526814615.6,286047001.1,N
1526814635.5,286047001.0,N
1526814655.3,286046998.6,N
1526814675.1,286046998.8,N
1526814695.9,286046999.0,N
1526814715.7,286046998.9,N
1526814735.5,286046999.4,N
1526814755.3,286046999.6,N
1526814775.2,286046997.7,N
1526814795.0,286046997.3,N
1526814795.9,286046997.3,N
1526814815.7,286046997.8,N
1526814835.6,286046997.9,N
1526814855.4,286046995.3,Y
1526814875.2,286046997.2,P
1526814895.1,286046995.0,P
1526814896.0,286046995.0,N
1526814915.8,286046995.1,N
1526814935.6,286046996.1,N
1526814955.5,286046996.0,N
1526814975.3,286046995.9,N
1526814995.1,286046993.3,Y
1526815015.9,286046998.6,P
1526815035.7,286046999.6,N
1526815055.5,286046999.6,N
1526815075.4,286046999.1,N
1526815095.2,286046996.5,N
1526815115.0,286046996.8,N
1526815115.9,286046996.8,N
1526815135.8,286046995.0,Y
1526815155.6,286046999.4,P
1526815175.4,286046996.6,P
1526815195.3,286046997.2,N
1526815215.1,286046997.8,N
1526815216.0,286046997.8,N
1526815235.8,286046997.5,N
1526815255.7,286046995.8,Y
1526815275.5,286046997.3,P
1526815295.3,286046998.0,P
1526815315.2,286046995.6,P
1526815335.9,286046996.1,Y
1526815355.7,286046996.7,P
1526815375.6,286046997.8,P
1526815395.4,286046995.0,P
1526815415.2,286046995.6,Y
1526815435.1,286046998.8,P
1526815436.0,286046998.8,N
1526815455.8,286046996.7,P
1526815475.6,286046997.2,N
1526815495.5,286046997.7,N
1526815515.3,286046997.6,N
1526815535.1,286046995.2,Y
1526815555.9,286046996.8,P
1526815575.7,286046996.8,P
1526815595.5,286046997.6,P
1526815615.4,286046997.8,Y
1526815635.2,286046998.7,P
1526815655.0,286046999.2,N
1526815655.9,286046999.2,N
1526815675.8,286046996.7,Y
1526815695.6,286046999.0,P
1526815715.4,286046999.3,P
1526815735.3,286046999.6,N
1526815755.1,286046996.5,Y
1526815775.8,286046997.0,P
1526815795.7,286046997.8,N
1526815815.5,286046998.0,N
1526815835.3,286046998.0,N
1526815855.2,286046995.1,Y
1526815875.9,286046996.5,P
1526815895.7,286046997.7,P
1526815915.6,286046997.9,P
1526815935.4,286046995.1,Y
1526815955.2,286046999.2,P
1526815975.1,286046997.0,P
1526815976.0,286046997.0,P
1526815995.8,286046996.6,Y
1526816015.6,286047000.8,P
1526816035.5,286046998.6,N
1526816055.3,286046998.5,N
1526816075.1,286046998.1,N
1526816095.9,286046998.6,N
1526816115.7,286046998.9,N
1526816135.5,286046999.4,N
1526816155.4,286046999.1,N
1526816175.2,286046999.6,N
1526816195.0,286046996.9,Y
1526816195.9,286046996.9,P
1526816215.8,286046996.6,P
1526816235.6,286046999.2,N
1526816255.4,286046997.1,N
1526816275.3,286046996.6,Y
1526816295.1,286047000.9,P
1526816296.0,286047000.9,N
1526816315.8,286047001.0,N
1526816335.7,286047001.1,N
1526816355.5,286046998.4,N
1526816375.3,286047001.1,N
1526816395.1,286047001.1,N
1526816415.9,286047000.8,N
1526816435.7,286047001.0,N
1526816455.5,286047001.2,N
1526816475.4,286046998.1,N
1526816495.2,286047000.9,N
1526816515.0,286046998.1,N
1526816515.9,286046998.1,N
1526816535.8,286047000.9,N
1526816555.6,286047001.2,N
1526816575.4,286047001.1,N
1526816595.3,286047000.6,N
1526816615.1,286047001.1,N
1526816616.0,286047001.1,N
1526816635.8,286047000.8,N
1526816655.7,286047000.4,N
1526816675.5,286047000.6,N
1526816695.3,286047001.1,N
1526816715.1,286047000.7,N
1526816735.9,286047000.3,N
1526816755.7,286047000.9,N
1526816775.5,286047000.0,N
1526816795.4,286047000.9,N
1526816815.2,286047000.9,N
1526816835.0,286047000.6,N
1526816835.9,286047000.6,N
1526816855.8,286047000.6,N
1526816875.6,286047000.5,N
1526816895.4,286047000.4,N
1526816915.3,286047000.3,N
1526816935.1,286047000.3,N
1526816936.0,286047000.3,N
1526816955.8,286047000.7,N
1526816975.7,286047000.3,N
1526816995.5,286047000.8,N
1526817015.3,286047000.6,N
1526817035.2,286047002.4,Y
1526817055.9,286047000.9,P
1526817075.7,286047001.0,P
1526817095.6,286047000.8,P
1526817115.4,286047001.1,Y
1526817135.2,286046998.3,P
1526817155.1,286046998.4,N
1526817156.0,286046998.4,N
1526817175.8,286046998.7,N
1526817195.6,286046999.0,N
1526817215.4,286046999.3,N
1526817235.3,286046996.6,Y
1526817255.1,286046998.9,P
1526817275.9,286046999.1,P
1526817295.7,286046996.8,P
1526817315.5,286046996.9,Y
1526817335.4,286046998.8,P
1526817355.2,286046999.4,P
1526817375.0,286046998.8,P
1526817375.9,286046998.8,Y
1526817395.8,286046998.1,P
1526817415.6,286046998.4,P
1526817435.4,286046999.0,P
1526817455.3,286046999.3,N
1526817475.1,286046999.0,N
1526817476.0,286046999.0,N
1526817495.8,286046996.9,Y
1526817515.7,286046999.1,P
1526817535.5,286046996.9,P
1526817555.3,286046997.5,N
1526817575.2,286046997.3,Y
1526817595.9,286046998.7,P
